TimeMDT,TemperatureF,Dew PointF,Humidity,Sea Level PressureIn,VisibilityMPH,Wind Direction,Wind SpeedMPH,Gust SpeedMPH,PrecipitationIn,Events,Conditions,WindDirDegrees,DateUTC
12:15 AM,26.6,23.0,86,29.83,7.0,NNE,18.4,-,N/A,Snow,Light Snow,20,2013-04-09 06:15:00
12:35 AM,26.6,23.0,86,29.84,5.0,North,15.0,24.2,N/A,,Overcast,10,2013-04-09 06:35:00
12:55 AM,26.6,23.0,86,29.84,5.0,North,12.7,-,N/A,,Overcast,10,2013-04-09 06:55:00
1:14 AM,24.8,23.0,93,29.85,7.0,NNE,15.0,-,N/A,,Overcast,20,2013-04-09 07:14:00
1:35 AM,24.8,21.2,86,29.87,7.0,NNE,11.5,-,N/A,,Overcast,30,2013-04-09 07:35:00
1:55 AM,24.8,21.2,86,29.89,5.0,NE,13.8,-,N/A,Snow,Light Snow,40,2013-04-09 07:55:00
2:14 AM,23.0,19.4,86,29.88,7.0,NNE,17.3,23.0,N/A,,Overcast,30,2013-04-09 08:14:00
2:35 AM,21.2,17.6,86,29.87,3.0,NNE,23.0,26.5,N/A,Snow,Light Snow,20,2013-04-09 08:35:00
2:55 AM,21.2,17.6,86,29.89,2.0,North,17.3,23.0,N/A,Snow,Light Snow,10,2013-04-09 08:55:00
3:15 AM,21.2,17.6,86,29.90,1.8,NNE,17.3,23.0,N/A,Snow,Light Snow,20,2013-04-09 09:15:00
3:35 AM,21.2,17.6,86,29.90,2.5,NNE,15.0,19.6,N/A,Snow,Light Snow,30,2013-04-09 09:35:00
3:54 AM,19.4,17.6,93,29.91,1.5,NNE,15.0,18.4,N/A,Snow,Light Snow,20,2013-04-09 09:54:00
4:15 AM,19.4,17.6,93,29.93,1.5,NNE,11.5,-,N/A,Snow,Light Snow,20,2013-04-09 10:15:00
4:35 AM,19.4,17.6,93,29.91,1.2,NNE,15.0,21.9,N/A,Snow,Light Snow,20,2013-04-09 10:35:00
4:55 AM,19.4,15.8,86,29.94,2.0,NNE,12.7,-,N/A,Snow,Light Snow,20,2013-04-09 10:55:00
5:15 AM,19.4,15.8,86,29.95,1.2,NNE,15.0,-,N/A,Snow,Light Snow,20,2013-04-09 11:15:00
5:35 AM,19.4,14.0,80,29.96,1.0,NNE,12.7,17.3,N/A,Snow,Snow,20,2013-04-09 11:35:00
6:30 AM,17.6,12.2,79,29.98,2.0,North,11.5,18.4,N/A,Snow,Light Snow,360,2013-04-09 12:30:00
6:50 AM,17.6,12.2,79,29.97,2.0,North,19.6,24.2,N/A,Snow,Light Snow,10,2013-04-09 12:50:00
7:47 AM,17.6,12.2,79,30.02,2.5,NNE,13.8,-,N/A,Snow,Light Snow,20,2013-04-09 13:47:00
8:47 AM,17.6,12.2,79,30.03,1.0,North,11.5,-,N/A,Snow,Light Snow,360,2013-04-09 14:47:00
9:24 AM,17.6,12.2,79,30.02,0.5,North,16.1,20.7,N/A,Snow,Snow,360,2013-04-09 15:24:00
9:50 AM,17.6,12.2,79,30.02,0.8,North,17.3,20.7,N/A,Snow,Light Snow,10,2013-04-09 15:50:00
10:54 AM,17.6,12.2,79,30.03,0.5,North,18.4,24.2,N/A,Snow,Light Snow,10,2013-04-09 16:54:00
11:24 AM,17.6,12.2,79,30.04,1.0,North,12.7,-,N/A,Snow,Light Snow,10,2013-04-09 17:24:00
11:48 AM,17.6,12.2,79,30.04,1.0,North,15.0,-,N/A,Snow,Light Snow,10,2013-04-09 17:48:00
12:46 PM,17.6,12.2,79,30.04,1.5,NNE,12.7,-,N/A,Snow,Light Snow,30,2013-04-09 18:46:00
1:12 PM,19.4,12.2,74,30.02,0.8,North,15.0,-,N/A,Snow,Snow,10,2013-04-09 19:12:00
1:47 PM,17.6,12.2,79,30.03,2.5,NNE,13.8,-,N/A,Snow,Light Snow,30,2013-04-09 19:47:00
2:47 PM,17.6,12.2,79,30.03,2.5,NNE,20.7,-,N/A,Snow,Light Snow,20,2013-04-09 20:47:00
3:14 PM,17.6,10.4,73,30.03,8.0,NNE,16.1,-,N/A,,Overcast,30,2013-04-09 21:14:00
3:29 PM,17.6,10.4,73,30.04,4.0,North,17.3,-,N/A,Snow,Light Snow,10,2013-04-09 21:29:00
3:51 PM,17.6,10.4,73,30.05,4.0,North,11.5,-,N/A,Snow,Light Snow,10,2013-04-09 21:51:00
4:46 PM,17.6,10.4,73,30.05,1.5,NNE,15.0,-,N/A,Snow,Light Snow,20,2013-04-09 22:46:00
5:49 PM,15.8,10.4,79,30.09,1.5,NNE,18.4,21.9,N/A,Snow,Light Snow,30,2013-04-09 23:49:00
6:48 PM,15.8,8.6,73,30.11,1.5,North,11.5,-,N/A,Snow,Light Snow,10,2013-04-10 00:48:00
7:55 PM,14.0,8.6,79,30.13,2.0,NE,8.1,-,N/A,Snow,Light Snow,40,2013-04-10 01:55:00
8:29 PM,14.0,8.6,79,30.14,1.0,NNE,4.6,-,N/A,Snow,Snow,20,2013-04-10 02:29:00
8:46 PM,14.0,8.6,79,30.14,1.2,NE,5.8,-,N/A,Snow,Snow,40,2013-04-10 02:46:00
9:23 PM,14.0,8.6,79,30.15,2.0,North,5.8,-,N/A,Snow,Light Snow,10,2013-04-10 03:23:00
9:50 PM,14.0,8.6,79,30.15,2.0,NE,5.8,-,N/A,Snow,Light Snow,40,2013-04-10 03:50:00
11:14 PM,12.2,8.6,85,30.13,1.5,NE,5.8,-,N/A,Snow,Light Snow,50,2013-04-10 05:14:00
11:35 PM,12.2,8.6,85,30.13,4.0,NE,4.6,-,N/A,Snow,Light Snow,40,2013-04-10 05:35:00
11:55 PM,12.2,8.6,85,30.12,5.0,NNE,6.9,-,N/A,Snow,Light Snow,30,2013-04-10 05:55:00